This demonstration page uses our WeatherBlox Daily Observations layout. Learn more.

36.17497, -115.13722

Hourly Observations for June 21, 2016

Temp ( °F °C ) Dew Point ( °F °C ) Humidity (%) Winds ( mph kmh ) Pressure ( in mb ) Visibility ( mi km ) Precip ( " mm )
12:53 am 00:53 Clear 96 35.6 32 0 10 10 Calm 29.81 1010 10 16.0934 0 0
1:53 am 01:53 Clear 90 32.2 35 1.7 14 14 N 3 6 29.82 1010 10 16.0934 0 0
2:53 am 02:53 Clear 89 31.7 35 1.7 15 15 NW 3 6 29.81 1009 10 16.0934 0 0
3:53 am 03:53 Clear 89 31.7 32 0 13 13 ESE 3 6 29.82 1010 10 16.0934 0 0
4:53 am 04:53 Clear 88 31.1 28 -2.2 11 11 Calm 29.83 1010 10 16.0934 0 0
5:53 am 05:53 Sunny 88 31.1 29 -1.7 12 12 ENE 6 9 29.84 1011 10 16.0934 0 0
6:53 am 06:53 Sunny 88 31.1 31 -0.6 13 13 NW 3 6 29.86 1011 10 16.0934 0 0
7:53 am 07:53 Sunny 89 31.7 36 2.2 15 15 Calm 29.88 1012 10 16.0934 0 0
8:53 am 08:53 Sunny 93 33.9 35 1.7 13 13 WNW 7 11 29.88 1012 10 16.0934 0 0
9:53 am 09:53 Sunny 99 37.2 31 -0.6 9 9 NNW 3 6 29.86 1011 10 16.0934 0 0
10:53 am 10:53 Sunny 100 37.8 28 -2.2 8 8 SE 5 7 29.87 1011 10 16.0934 0 0
11:53 am 11:53 Sunny 102 38.9 31 -0.6 8 8 Calm 29.85 1011 10 16.0934 0 0
12:53 pm 12:53 Sunny 105 40.6 32 0 8 8 N 6 9 29.82 1010 10 16.0934 0 0
1:53 pm 13:53 Sunny 108 42.2 33 0.6 7 7 ESE 9 15 29.8 1009 10 16.0934 0 0
2:53 pm 14:53 Sunny 111 43.9 30 -1.1 6 6 SSE 13 20 29.76 1008 10 16.0934 0 0
3:53 pm 15:53 Sunny 113 45 29 -1.7 5 5 WSW 16 26 29.73 1007 10 16.0934 0 0
4:53 pm 16:53 Sunny 112 44.4 31 -0.6 6 6 WSW 16 26 29.71 1006 10 16.0934 0 0
5:53 pm 17:53 Sunny 110 43.3 32 0 7 7 WSW 12 19 29.7 1006 10 16.0934 0 0
6:53 pm 18:53 Sunny 108 42.2 32 0 7 7 SW 9 15 29.7 1006 10 16.0934 0 0
7:53 pm 19:53 Sunny 106 41.1 33 0.6 8 8 W 9 15 29.7 1006 10 16.0934 0 0
8:53 pm 20:53 Clear 103 39.4 34 1.1 9 9 WSW 6 9 29.71 1006 10 16.0934 0 0
9:53 pm 21:53 Clear 100 37.8 34 1.1 10 10 Calm 29.73 1007 10 16.0934 0 0
10:53 pm 22:53 Clear 98 36.7 36 2.2 11 11 WSW 5 7 29.73 1007 10 16.0934 0 0
11:53 pm 23:53 Clear 97 36.1 36 2.2 12 12 WSW 6 9 29.73 1007 10 16.0934 0 0

Powered by AerisWeather